Flag for Kuwait Weather past 2 weeks in Kuwait City, Kuwait

Now
73 °F

Sunny.


Feels Like: 76 °F
Forecast: 58 / 73 °F
Wind: 7 mph from Northwest

Location: Kuwait International Airport

Current Time: Mar 4, 2015 at 10:51:30 AM

Latest Report: Mar 4, 2015 at 10:00 AM


Visibility: 10 mi

Pressure: 30.01 "Hg

Humidity: 23%

Dew point: 34 °F

Location of Kuwait CityLocation

Historic Weather in Kuwait City — Graph

°F

Kuwait City temperature yesterday

Maximum temperature yesterday: 77 °F (at 1:00 PM)
Minimum temperature yesterday: 50 °F (at 4:00 AM)
Average temperature yesterday: 67 °F

Past Weeks' High & Low Weather Summary

 TemperatureHumidityPressure
High81 °F (Mar 2, 2:30 PM)100% (Mar 2, 12:30 AM)30.21 "Hg (Mar 2, 12:30 AM)
Low37 °F (Feb 24, 6:30 AM)16% (Feb 27, 5:00 PM)29.59 "Hg (Feb 20, 1:30 PM)
Average62 °F51%29.99 "Hg
* Reported Feb 17 8:00 AM — Mar 4 8:30 AM, Kuwait City, Weather by CustomWeather, © 2015

Note: Actual official high and low records may vary slightly from our data, if they occured in-between our weather recording intervals... More about our weather records

Advertising

Kuwait City weather history for previous 24 hours

 ConditionsComfort  
Time TempWeatherWind HumidityBarometerVisibility
8:30 AM
Wed, Mar 4
66 °FSunny.7 mph30%30.01 "Hg10 mi
8:00 AM64 °FSunny.8 mph32%29.98 "Hg10 mi
6:30 AM54 °FSunny.3 mph41%29.98 "Hg10 mi
4:30 AM55 °FClear.3 mph36%29.95 "Hg10 mi
4:00 AM55 °FClear.No wind38%29.95 "Hg10 mi
2:30 AM59 °FClear.5 mph39%29.98 "Hg10 mi
2:00 AM59 °FClear.3 mph39%29.98 "Hg10 mi
1:00 AM64 °FClear.3 mph34%29.98 "Hg10 mi
11:00 PM
Tue, Mar 3
64 °FPassing clouds.5 mph40%29.98 "Hg5 mi
9:00 PM68 °FClear.10 mph30%29.98 "Hg10 mi
8:00 PM68 °FClear.5 mph28%29.98 "Hg10 mi
6:30 PM70 °FClear.7 mph27%29.98 "Hg10 mi
6:00 PM70 °FClear.8 mph25%29.98 "Hg10 mi
5:00 PM72 °FSunny.6 mph23%29.98 "Hg10 mi
4:30 PM73 °FSunny.7 mph22%29.98 "Hg10 mi
4:00 PM73 °FSunny.10 mph23%29.95 "Hg10 mi
1:00 PM77 °FSunny.7 mph21%29.98 "Hg10 mi
11:00 AM75 °FSunny.5 mph22%30.04 "Hg10 mi
10:00 AM72 °FSunny.3 mph33%30.04 "Hg10 mi
Weather by CustomWeather, © 2015

See weather overviewHow to use our weather pages